Location: Amsterdam
(30.7274°N, 84.4357°W)
Time: 21:31:28
(UTC+00:00)

Injun/Solrad 3 - Pass Details

Date: 18 February 2026
Orbit: 872 x 984 km, 66.8° (Epoch: 6 March)

Event Time Altitude Azimuth Distance (km) Brightness Sun altitude
Rises 01:04:35 0° 350° (N) 3,587 11.1 -21.5°
Reaches altitude 10° 01:07:42 10° 4° (N) 2,661 10.2 -22.2°
Enters shadow 01:10:26 20° 28° (NNE) 2,070 9.4 -22.8°
Maximum altitude 01:12:30 23° 55° (NE) 1,918 - -23.2°
Drops below altitude 10° 01:17:21 10° 106° (ESE) 2,706 - -24.3°
Sets 01:20:31 0° 120° (ESE) 3,662 - -24.9°
